Погода в Верхнеказымском

Россия / Ханты-Мансийский автономный округ - Югра     63°49′34″N   67°46′44″E
темп.,
°C
ветер,
м/с
пор.,
м/с
влажн.,
%
обл.,
%
осадки,
мм/ч
давл.,
гПа
погр.,
м
4 марта, чт
чт423:00−12ююв369698 0.4 991173
02:00−12ююз3596100 0.4 991173
05:00−13ююз2396100 0.8 99284
08:00−13ююв3596100 0.3 990117
11:00−10ю3594100 0.6 991334
14:00−7ю3592100 0.2 990408
17:00−7ю3594100 0.3 991174
20:00−7ю3596100 0.4 991186
5 марта, пт
пт523:00−9ю349696 0.6 991104
02:00−10ю239694 0.2 99143
05:00−12ю239693 0.3 99125
08:00−15ююз229796 0.0 99120
11:00−11ю229596 0.1 992141
14:00−9юз129191 0.0 993210
17:00−11ююз019594 0.0 99421
20:00−11сз1196100 0.1 99521
6 марта, сб
сб623:00−13з239699 0.3 99633
02:00−18з239977 0.0 99721
05:00−19зсз2210081 0.0 99820
08:00−19сз129993 0.0 99820
11:00−15з229496 0.0 999154
14:00−12зсз239099 0.0 999338
17:00−12з129599 0.1 100047
20:00−15с2296100 0.2 100128
7 марта, вс
вс723:00−18ссз129797 0.2 100220
02:00−17ссз2297100 0.1 100225
05:00−19ссз129898 0.1 100320
08:00−19сз119894 0.1 100420
11:00−17з129392 0.1 1005205
14:00−15зюз229098 0.0 1005319
17:00−16юз229695 0.1 100629
20:00−19зюз1110096 0.1 100620
8 марта, пн
пн823:00−21зюз2210096 0.1 100722
02:00−22з2299100 0.0 100724
05:00−22зюз229899 0.1 100820
08:00−21юз1298100 0.1 100858
11:00−19зюз239498 0.1 1008246
14:00−18зюз239094 0.0 1009352
17:00−20з119693 0.0 100920
20:00−24юв009947 0.0 100920